SCP
0 0 0 0 0 0 0 0 0 0 0 0 0 0 0 0 0 0 0 0 0 0 0 0 0 0 0 0 -0 0 0 0 0 0 0 0 0 0 0 -0 0 0 -0
0 0 0 0 0 0 0 0 0 0 0 0 0 0 0 0 0 0 0 0 0 0 0 0 0 0 0 0 -0 0 0 0 0 0 0 0 0 0 0 -0 -0 -0 0
0 0 0 0 0 0 0 0 0 0 0 0 0 0 0 0 0 0 0 1 0 0 0 0 0 0 0 0 0 0 -0 -0 0 0 0 -0 0 0 0 0 0 0 0
0 0 0 0 0 0 0 0 0 0 0 0 0 0 0 0 0 0 0 0 0 0 0 0 0 0 0 0 0 -0 -0 0 0 0 0 0 0 0 0 0 0 0 0
0 0 0 0 0 0 0 0 0 0 0 0 0 0 0 0 0 0 0 0 0 0 0 0 0 0 0 0 0 0 -0 0 0 0 -0 0 0 0 0 0 0 0 -0
0 0 0 0 0 0 0 0 0 0 0 0 0 0 0 0 0 0 0 0 0 0 0 0 0 0 -0 0 0 -0 -0 0 0 -0 0 0 0 -0 0 0 0 -0 -0
0 0 0 0 0 0 -0 0 0 0 0 0 0 0 0 0 0 0 0 0 0 0 0 0 0 0 0 0 0 -0 0 0 -0 -0 0 0 -0 0 0 0 0 -0 0
0 0 0 0 0 -0 0 0 0 0 0 0 0 0 0 0 0 0 0 0 0 0 0 0 0 0 0 0 -0 0 -0 0 0 -0 0 0 -0 0 0 0 -0 -0 0
0 0 -0 0 -0 0 0 0 0 0 0 0 0 0 0 0 0 0 0 0 0 0 0 0 0 0 0 0 0 0 -0 0 0 -0 -0 -0 -0 0 -0 -0 -0 -0 0
0 -0 0 -0 -0 0 0 0 0 0 0 0 0 0 0 0 0 0 0 0 0 0 0 0 0 0 0 0 0 0 0 0 0 -0 0 -0 -0 -0 -0 -0 -0 0 0
-0 -0 0 -0 0 0 0 0 0 0 0 0 0 0 0 0 0 0 0 0 0 0 0 0 0 0 0 0 0 0 -0 0 0 0 -0 -0 -0 -0 -0 -0 -0 0 0
0 0 -0 -0 0 0 0 0 0 0 0 0 0 0 0 0 0 0 0 0 0 0 0 0 0 0 0 0 0 0 0 0 0 -0 0 0 -0 -0 -0 -0 -0 0 0
0 0 0 0 0 0 0 0 0 0 0 0 0 0 0 0 0 0 0 0 0 0 0 0 0 0 0 0 0 0 -0 0 -0 0 0 0 0 -0 0 0 0 0 -0
-0 0 0 0 0 0 0 0 0 0 0 0 0 0 0 0 0 0 0 0 0 0 0 0 0 0 0 0 0 0 -0 0 0 0 0 0 0 0 0 0 0 0 0
-0 0 0 0 0 0 0 0 0 0 0 0 0 0 0 0 0 0 0 0 0 0 0 0 0 0 0 0 0 0 0 -0 0 0 0 0 0 0 0 0 0 0 0
0 0 0 0 0 0 0 0 0 0 0 0 0 0 0 0 0 0 0 0 0 0 0 0 0 0 0 0 0 0 0 0 0 -0 0 0 0 0 0 0 0 0 0
0 0 0 0 0 0 0 0 0 0 0 0 0 0 0 0 0 0 0 0 0 0 0 0 0 0 0 0 0 0 0 0 -0 -0 0 0 0 0 0 0 0 0 0
0 0 0 0 0 0 0 0 0 0 0 0 0 0 0 0 0 0 0 0 0 0 0 0 0 0 0 0 0 0 0 0 -0 -0 0 0 0 0 0 0 0 0 0
0 0 0 0 0 0 0 0 0 0 0 0 0 0 0 0 0 0 0 0 0 0 0 0 0 0 0 0 0 0 0 0 0 0 0 0 0 0 0 0 0 0 0
0 0 0 0 0 0 0 0 0 0 0 0 0 0 0 0 -0 0 0 -0 0 0 0 0 0 0 0 0 0 0 0 0 0 0 0 0 0 0 0 0 0 0 0
0 0 0 0 0 0 0 0 0 0 0 0 0 0 0 0 0 -0 0 0 0 -0 0 0 0 0 0 0 0 0 0 0 0 0 0 0 0 0 0 0 0 0 0
0 0 0 0 0 0 0 0 0 0 0 0 0 0 0 0 0 0 0 0 0 0 0 0 0 0 0 0 0 0 0 0 0 0 0 0 0 0 0 0 0 0 0
0 0 0 0 0 0 -0 0 0 0 0 0 0 0 0 0 0 0 0 0 0 0 0 0 0 0 0 0 0 0 0 0 0 0 0 0 0 0 0 0 0 0 0
0 0 0 0 0 0 0 0 0 0 0 0 0 0 0 -0 0 0 0 0 0 0 0 0 0 0 0 -0 -0 0 0 0 0 0 0 0 0 0 0 0 0 0 0
0 0 0 0 0 -0 0 0 0 0 -0 -0 -0 0 0 -0 0 0 0 0 0 0 0 0 -0 -0 -0 0 0 0 0 0 0 0 0 0 0 0 0 0 0 0 0
0 0 0 0 0 0 0 0 0 0 0 -0 -0 -0 0 0 0 0 -0 -0 0 0 -0 -0 -0 0 0 0 0 0 0 0 0 0 0 0 0 0 0 0 0 0 0
Wind_Speed_500mb
25 20 23 27 24 23 24 24 32 39 42 36 29 35 34 29 34 41 43 37 35 45 54 52 63 74 65 73 70 66 63 54 48 49 44 41 37 32 28 22 16 14 12
30 23 22 25 26 29 26 26 27 37 42 37 32 39 35 28 37 40 41 41 36 48 49 50 62 61 75 80 77 75 69 54 53 50 47 40 34 30 22 19 15 14 14
30 30 27 26 22 25 29 31 28 34 36 41 36 45 33 32 36 40 39 43 37 47 47 46 59 69 79 79 73 80 66 58 53 48 43 37 32 25 19 17 14 14 19
28 29 28 25 23 26 26 33 33 33 36 39 41 47 34 34 41 41 42 40 39 47 45 47 58 65 72 79 80 66 63 57 53 48 41 35 29 20 18 17 18 21 21
23 26 22 20 22 21 25 32 37 36 36 37 43 38 34 37 40 42 47 43 40 46 45 54 61 64 67 79 64 66 62 60 53 48 39 33 28 20 17 21 21 20 16
22 23 17 19 20 17 19 33 42 39 38 38 36 38 33 35 39 38 42 41 38 39 52 62 69 63 75 79 72 67 65 59 51 43 38 32 27 20 25 21 18 16 11
17 19 18 19 15 11 15 28 32 40 38 30 34 34 35 37 32 35 37 38 41 45 49 62 73 68 74 75 76 71 62 52 46 41 36 31 24 23 16 18 16 11 7
13 19 18 15 10 9 21 27 32 38 35 32 37 37 31 30 29 31 36 42 42 42 54 66 80 78 82 81 68 60 54 48 42 37 32 26 22 19 18 17 12 8 2
6 18 16 14 14 14 20 24 33 36 34 35 33 36 19 13 34 33 39 46 45 48 47 62 74 77 70 72 61 65 51 52 44 34 25 22 19 15 15 12 9 4 3
12 15 15 18 17 16 22 25 34 37 33 35 34 28 22 33 31 30 45 51 51 54 52 57 70 76 64 75 60 60 51 40 31 27 21 16 14 14 14 11 8 3 4
11 19 22 22 22 20 19 20 31 30 31 35 41 35 29 30 42 35 47 55 50 51 56 63 68 74 68 69 63 59 39 29 28 22 16 11 8 13 14 12 7 4 3
16 27 26 29 24 23 20 19 22 31 25 37 35 34 32 47 44 57 58 64 63 54 61 64 68 71 74 69 64 36 31 32 24 19 13 11 13 15 13 11 7 6 5
21 33 31 31 23 25 20 17 22 28 22 33 30 28 31 48 45 48 67 58 58 60 61 65 63 64 68 66 46 38 33 28 23 17 14 12 14 14 14 13 11 8 8
23 33 31 29 20 23 17 16 21 23 23 33 31 31 37 47 52 54 55 68 62 58 73 61 59 60 60 57 44 36 32 26 17 13 14 16 16 17 16 13 12 11 11
22 33 28 30 19 22 18 16 20 20 26 32 36 41 46 47 60 68 73 61 77 52 47 53 55 50 55 52 44 34 23 19 20 17 15 16 15 17 14 11 14 15 16
18 25 26 25 25 24 22 18 17 20 20 32 35 47 45 43 58 69 69 72 67 70 39 58 53 50 47 49 37 23 15 14 13 10 15 15 18 16 12 14 17 19 21
19 22 24 26 30 32 24 21 25 28 30 29 26 32 38 49 61 67 77 71 77 68 59 55 47 42 44 41 36 23 18 11 14 16 16 17 15 14 16 18 20 24 26
22 23 31 33 35 34 29 27 31 29 32 34 30 31 42 55 59 72 61 56 50 33 56 52 49 41 36 37 30 21 14 17 13 10 12 10 14 18 20 21 24 27 30
24 28 32 32 35 34 28 27 26 29 27 25 27 35 44 51 61 67 57 44 45 39 55 44 42 40 37 36 32 26 22 15 14 17 11 11 13 14 20 24 28 33 38
29 33 29 31 32 29 28 29 30 27 26 21 23 35 44 50 66 60 51 55 46 48 41 37 42 36 33 32 25 19 23 16 11 10 11 10 17 17 22 28 30 33 35
30 31 34 32 28 24 25 26 30 24 22 24 30 37 53 61 53 51 59 49 49 48 47 44 31 26 26 30 25 16 12 9 13 14 8 14 20 23 30 35 36 41 45
27 24 29 26 20 18 19 22 32 19 27 40 36 40 43 50 49 49 56 48 37 33 33 29 26 25 23 18 17 11 9 8 11 9 14 23 33 30 36 33 40 50 52
21 21 26 24 23 23 24 31 30 26 33 38 42 47 45 49 54 42 45 29 26 26 23 26 24 23 21 16 12 8 4 2 8 21 27 29 38 39 37 37 38 44 44
12 14 23 24 26 26 26 36 36 29 31 39 40 45 57 56 47 43 32 26 25 24 20 15 9 6 4 7 3 4 11 17 23 24 28 29 34 36 37 41 28 32 34
7 11 17 23 28 30 32 40 38 36 38 38 38 39 47 48 37 30 28 26 24 20 17 8 11 13 3 1 6 10 16 18 21 23 24 22 24 36 32 26 30 32 37
13 22 22 22 30 32 33 33 33 36 37 39 37 39 39 38 40 41 38 29 29 25 20 14 15 18 11 10 11 12 12 13 13 12 12 23 26 28 18 17 36 37 42
Wind_Direction_500mb
273 283 271 261 262 263 256 243 230 222 217 216 217 208 201 206 210 207 216 216 210 203 201 198 200 196 196 183 177 174 171 163 164 172 162 166 156 150 145 142 140 130 126
274 276 282 268 259 267 253 241 225 216 219 216 219 199 201 202 203 207 210 215 212 200 200 197 200 199 187 181 180 173 161 168 176 168 162 157 152 151 142 139 135 134 122
271 271 280 271 264 269 251 234 221 219 221 213 214 197 207 203 207 214 210 215 215 204 206 204 197 198 194 186 173 161 160 176 174 162 158 156 151 146 144 137 132 123 121
271 266 265 261 266 267 248 230 220 213 212 209 199 201 208 214 211 223 214 217 217 204 206 196 187 190 171 164 156 159 166 170 164 160 156 157 144 145 142 139 130 131 123
271 264 248 256 268 266 246 227 217 209 204 203 196 204 209 213 212 222 214 214 213 197 189 185 186 177 162 154 158 163 165 165 162 157 155 152 150 150 146 137 132 129 122
263 256 242 257 265 262 246 211 207 207 201 206 205 204 215 211 224 207 205 209 209 199 190 182 174 174 160 152 160 163 162 163 159 150 159 154 148 156 137 128 139 123 116
268 240 229 241 256 248 214 193 198 199 198 204 205 203 202 204 207 196 202 207 197 199 195 195 176 169 162 159 162 166 162 156 146 162 159 155 148 125 120 153 137 132 131
254 234 220 228 214 198 180 184 191 194 201 197 189 172 162 191 201 199 204 199 190 189 192 180 165 170 164 164 162 158 151 146 159 162 156 143 125 123 154 147 145 139 90
243 183 202 196 183 174 175 180 182 189 195 189 197 179 147 175 183 197 196 192 187 174 174 169 173 168 163 153 154 153 158 162 173 158 150 130 127 149 155 146 162 192 329
159 176 173 166 164 161 172 187 195 189 195 195 186 196 194 196 169 168 190 185 178 178 178 168 172 169 163 157 158 165 168 173 156 156 137 142 136 153 162 169 206 249 346
160 162 153 149 154 158 160 171 176 187 194 192 193 197 208 195 181 176 149 165 169 171 172 171 172 170 166 165 161 170 175 162 167 156 149 154 168 171 176 195 222 266 273
177 166 163 160 153 155 150 162 185 182 194 189 190 206 214 189 192 157 154 157 167 176 178 180 172 174 169 168 166 176 168 169 167 169 168 201 196 191 194 214 241 270 281
170 173 174 171 151 156 152 164 172 179 184 180 188 187 196 198 191 166 157 152 149 168 168 170 172 168 171 171 176 174 172 168 176 179 206 221 219 205 207 221 245 246 264
167 174 179 172 164 170 168 174 174 185 179 187 182 189 190 192 186 166 177 171 155 140 163 168 172 179 184 180 172 166 170 177 182 198 225 228 213 202 212 226 257 263 271
150 174 176 178 164 164 176 181 185 180 178 178 179 172 169 165 174 175 179 191 169 149 152 168 171 187 182 178 167 167 163 179 197 219 211 216 208 209 226 259 275 276 287
153 171 180 180 178 170 174 174 176 168 175 175 179 178 186 178 174 170 167 166 175 165 156 174 179 182 166 167 163 162 183 207 216 215 214 214 219 227 255 281 291 300 295
141 159 163 159 159 165 162 160 159 153 164 161 160 165 169 173 173 171 166 167 167 174 164 174 174 173 167 171 173 186 215 214 215 217 218 223 236 259 282 293 299 294 301
126 136 152 149 153 160 161 154 154 155 156 158 157 157 165 172 168 168 161 155 160 174 175 162 172 166 170 175 188 209 218 207 205 212 226 246 263 279 288 295 303 304 310
129 129 144 143 149 156 162 167 154 137 148 161 161 163 165 174 169 162 157 161 152 160 164 155 165 160 174 190 203 210 200 207 216 229 244 254 261 284 294 307 313 315 315
128 133 138 144 151 156 164 170 171 159 158 152 160 171 173 167 167 157 154 150 151 148 152 153 158 168 191 195 202 205 205 213 240 268 261 276 280 304 324 324 325 327 328
123 136 142 144 154 159 173 180 186 187 191 178 160 167 166 161 162 168 161 150 147 148 155 166 193 201 205 205 204 207 210 232 266 280 323 333 326 338 341 330 322 312 308
125 139 156 156 160 162 169 172 167 155 157 152 149 148 156 162 157 154 157 161 157 162 165 174 194 201 192 202 204 209 184 237 289 331 343 333 319 322 320 314 304 293 289
109 114 142 156 149 135 149 155 158 161 152 148 143 151 152 151 154 149 155 150 148 152 132 124 126 122 120 125 140 146 123 293 346 301 308 322 324 327 318 307 309 313 307
103 129 139 151 152 140 144 152 146 149 152 147 152 153 155 156 154 153 157 164 163 162 170 197 210 126 123 167 223 286 285 299 306 303 316 318 317 307 309 317 326 326 334
142 155 144 143 148 147 149 150 148 143 142 151 149 153 163 166 169 166 168 162 160 167 177 190 170 216 255 348 291 308 307 302 300 293 294 296 305 314 327 334 336 349 349
177 169 166 154 147 141 148 156 159 160 159 160 159 161 168 175 177 175 177 176 168 162 177 166 170 199 251 263 267 265 268 262 266 267 250 293 314 324 337 314 335 345 340
Wind_Speed_850mb
25 20 23 27 24 23 24 24 32 39 42 36 29 35 34 29 34 41 43 37 35 45 54 52 63 74 65 73 70 66 63 54 48 49 44 41 37 32 28 22 16 14 12
30 23 22 25 26 29 26 26 27 37 42 37 32 39 35 28 37 40 41 41 36 48 49 50 62 61 75 80 77 75 69 54 53 50 47 40 34 30 22 19 15 14 14
30 30 27 26 22 25 29 31 28 34 36 41 36 45 33 32 36 40 39 43 37 47 47 46 59 69 79 79 73 80 66 58 53 48 43 37 32 25 19 17 14 14 19
28 29 28 25 23 26 26 33 33 33 36 39 41 47 34 34 41 41 42 40 39 47 45 47 58 65 72 79 80 66 63 57 53 48 41 35 29 20 18 17 18 21 21
23 26 22 20 22 21 25 32 37 36 36 37 43 38 34 37 40 42 47 43 40 46 45 54 61 64 67 79 64 66 62 60 53 48 39 33 28 20 17 21 21 20 16
22 23 17 19 20 17 19 33 42 39 38 38 36 38 33 35 39 38 42 41 38 39 52 62 69 63 75 79 72 67 65 59 51 43 38 32 27 20 25 21 18 16 11
17 19 18 19 15 11 15 28 32 40 38 30 34 34 35 37 32 35 37 38 41 45 49 62 73 68 74 75 76 71 62 52 46 41 36 31 24 23 16 18 16 11 7
13 19 18 15 10 9 21 27 32 38 35 32 37 37 31 30 29 31 36 42 42 42 54 66 80 78 82 81 68 60 54 48 42 37 32 26 22 19 18 17 12 8 2
6 18 16 14 14 14 20 24 33 36 34 35 33 36 19 13 34 33 39 46 45 48 47 62 74 77 70 72 61 65 51 52 44 34 25 22 19 15 15 12 9 4 3
12 15 15 18 17 16 22 25 34 37 33 35 34 28 22 33 31 30 45 51 51 54 52 57 70 76 64 75 60 60 51 40 31 27 21 16 14 14 14 11 8 3 4
11 19 22 22 22 20 19 20 31 30 31 35 41 35 29 30 42 35 47 55 50 51 56 63 68 74 68 69 63 59 39 29 28 22 16 11 8 13 14 12 7 4 3
16 27 26 29 24 23 20 19 22 31 25 37 35 34 32 47 44 57 58 64 63 54 61 64 68 71 74 69 64 36 31 32 24 19 13 11 13 15 13 11 7 6 5
21 33 31 31 23 25 20 17 22 28 22 33 30 28 31 48 45 48 67 58 58 60 61 65 63 64 68 66 46 38 33 28 23 17 14 12 14 14 14 13 11 8 8
23 33 31 29 20 23 17 16 21 23 23 33 31 31 37 47 52 54 55 68 62 58 73 61 59 60 60 57 44 36 32 26 17 13 14 16 16 17 16 13 12 11 11
22 33 28 30 19 22 18 16 20 20 26 32 36 41 46 47 60 68 73 61 77 52 47 53 55 50 55 52 44 34 23 19 20 17 15 16 15 17 14 11 14 15 16
18 25 26 25 25 24 22 18 17 20 20 32 35 47 45 43 58 69 69 72 67 70 39 58 53 50 47 49 37 23 15 14 13 10 15 15 18 16 12 14 17 19 21
19 22 24 26 30 32 24 21 25 28 30 29 26 32 38 49 61 67 77 71 77 68 59 55 47 42 44 41 36 23 18 11 14 16 16 17 15 14 16 18 20 24 26
22 23 31 33 35 34 29 27 31 29 32 34 30 31 42 55 59 72 61 56 50 33 56 52 49 41 36 37 30 21 14 17 13 10 12 10 14 18 20 21 24 27 30
24 28 32 32 35 34 28 27 26 29 27 25 27 35 44 51 61 67 57 44 45 39 55 44 42 40 37 36 32 26 22 15 14 17 11 11 13 14 20 24 28 33 38
29 33 29 31 32 29 28 29 30 27 26 21 23 35 44 50 66 60 51 55 46 48 41 37 42 36 33 32 25 19 23 16 11 10 11 10 17 17 22 28 30 33 35
30 31 34 32 28 24 25 26 30 24 22 24 30 37 53 61 53 51 59 49 49 48 47 44 31 26 26 30 25 16 12 9 13 14 8 14 20 23 30 35 36 41 45
27 24 29 26 20 18 19 22 32 19 27 40 36 40 43 50 49 49 56 48 37 33 33 29 26 25 23 18 17 11 9 8 11 9 14 23 33 30 36 33 40 50 52
21 21 26 24 23 23 24 31 30 26 33 38 42 47 45 49 54 42 45 29 26 26 23 26 24 23 21 16 12 8 4 2 8 21 27 29 38 39 37 37 38 44 44
12 14 23 24 26 26 26 36 36 29 31 39 40 45 57 56 47 43 32 26 25 24 20 15 9 6 4 7 3 4 11 17 23 24 28 29 34 36 37 41 28 32 34
7 11 17 23 28 30 32 40 38 36 38 38 38 39 47 48 37 30 28 26 24 20 17 8 11 13 3 1 6 10 16 18 21 23 24 22 24 36 32 26 30 32 37
13 22 22 22 30 32 33 33 33 36 37 39 37 39 39 38 40 41 38 29 29 25 20 14 15 18 11 10 11 12 12 13 13 12 12 23 26 28 18 17 36 37 42
Wind_Direction_850mb
273 283 271 261 262 263 256 243 230 222 217 216 217 208 201 206 210 207 216 216 210 203 201 198 200 196 196 183 177 174 171 163 164 172 162 166 156 150 145 142 140 130 126
274 276 282 268 259 267 253 241 225 216 219 216 219 199 201 202 203 207 210 215 212 200 200 197 200 199 187 181 180 173 161 168 176 168 162 157 152 151 142 139 135 134 122
271 271 280 271 264 269 251 234 221 219 221 213 214 197 207 203 207 214 210 215 215 204 206 204 197 198 194 186 173 161 160 176 174 162 158 156 151 146 144 137 132 123 121
271 266 265 261 266 267 248 230 220 213 212 209 199 201 208 214 211 223 214 217 217 204 206 196 187 190 171 164 156 159 166 170 164 160 156 157 144 145 142 139 130 131 123
271 264 248 256 268 266 246 227 217 209 204 203 196 204 209 213 212 222 214 214 213 197 189 185 186 177 162 154 158 163 165 165 162 157 155 152 150 150 146 137 132 129 122
263 256 242 257 265 262 246 211 207 207 201 206 205 204 215 211 224 207 205 209 209 199 190 182 174 174 160 152 160 163 162 163 159 150 159 154 148 156 137 128 139 123 116
268 240 229 241 256 248 214 193 198 199 198 204 205 203 202 204 207 196 202 207 197 199 195 195 176 169 162 159 162 166 162 156 146 162 159 155 148 125 120 153 137 132 131
254 234 220 228 214 198 180 184 191 194 201 197 189 172 162 191 201 199 204 199 190 189 192 180 165 170 164 164 162 158 151 146 159 162 156 143 125 123 154 147 145 139 90
243 183 202 196 183 174 175 180 182 189 195 189 197 179 147 175 183 197 196 192 187 174 174 169 173 168 163 153 154 153 158 162 173 158 150 130 127 149 155 146 162 192 329
159 176 173 166 164 161 172 187 195 189 195 195 186 196 194 196 169 168 190 185 178 178 178 168 172 169 163 157 158 165 168 173 156 156 137 142 136 153 162 169 206 249 346
160 162 153 149 154 158 160 171 176 187 194 192 193 197 208 195 181 176 149 165 169 171 172 171 172 170 166 165 161 170 175 162 167 156 149 154 168 171 176 195 222 266 273
177 166 163 160 153 155 150 162 185 182 194 189 190 206 214 189 192 157 154 157 167 176 178 180 172 174 169 168 166 176 168 169 167 169 168 201 196 191 194 214 241 270 281
170 173 174 171 151 156 152 164 172 179 184 180 188 187 196 198 191 166 157 152 149 168 168 170 172 168 171 171 176 174 172 168 176 179 206 221 219 205 207 221 245 246 264
167 174 179 172 164 170 168 174 174 185 179 187 182 189 190 192 186 166 177 171 155 140 163 168 172 179 184 180 172 166 170 177 182 198 225 228 213 202 212 226 257 263 271
150 174 176 178 164 164 176 181 185 180 178 178 179 172 169 165 174 175 179 191 169 149 152 168 171 187 182 178 167 167 163 179 197 219 211 216 208 209 226 259 275 276 287
153 171 180 180 178 170 174 174 176 168 175 175 179 178 186 178 174 170 167 166 175 165 156 174 179 182 166 167 163 162 183 207 216 215 214 214 219 227 255 281 291 300 295
141 159 163 159 159 165 162 160 159 153 164 161 160 165 169 173 173 171 166 167 167 174 164 174 174 173 167 171 173 186 215 214 215 217 218 223 236 259 282 293 299 294 301
126 136 152 149 153 160 161 154 154 155 156 158 157 157 165 172 168 168 161 155 160 174 175 162 172 166 170 175 188 209 218 207 205 212 226 246 263 279 288 295 303 304 310
129 129 144 143 149 156 162 167 154 137 148 161 161 163 165 174 169 162 157 161 152 160 164 155 165 160 174 190 203 210 200 207 216 229 244 254 261 284 294 307 313 315 315
128 133 138 144 151 156 164 170 171 159 158 152 160 171 173 167 167 157 154 150 151 148 152 153 158 168 191 195 202 205 205 213 240 268 261 276 280 304 324 324 325 327 328
123 136 142 144 154 159 173 180 186 187 191 178 160 167 166 161 162 168 161 150 147 148 155 166 193 201 205 205 204 207 210 232 266 280 323 333 326 338 341 330 322 312 308
125 139 156 156 160 162 169 172 167 155 157 152 149 148 156 162 157 154 157 161 157 162 165 174 194 201 192 202 204 209 184 237 289 331 343 333 319 322 320 314 304 293 289
109 114 142 156 149 135 149 155 158 161 152 148 143 151 152 151 154 149 155 150 148 152 132 124 126 122 120 125 140 146 123 293 346 301 308 322 324 327 318 307 309 313 307
103 129 139 151 152 140 144 152 146 149 152 147 152 153 155 156 154 153 157 164 163 162 170 197 210 126 123 167 223 286 285 299 306 303 316 318 317 307 309 317 326 326 334
142 155 144 143 148 147 149 150 148 143 142 151 149 153 163 166 169 166 168 162 160 167 177 190 170 216 255 348 291 308 307 302 300 293 294 296 305 314 327 334 336 349 349
177 169 166 154 147 141 148 156 159 160 159 160 159 161 168 175 177 175 177 176 168 162 177 166 170 199 251 263 267 265 268 262 266 267 250 293 314 324 337 314 335 345 340